This is the latest recevied weather packets stored in our database for station/object WV6L-13. If no packets are shown the sender has not sent any weather packets the latest 10 day(s).
| Time | Temp. | Humidity | Pressure | Rain* | Wind** | Luminosity | Snow |
|---|---|---|---|---|---|---|---|
| 1777741195 | 24.44° C | 15% | 928.2 hPa | - | - | - | - |
| 1777740295 | 25.56° C | 14% | 928.2 hPa | - | - | - | - |
| 1777739994 | 25° C | 14% | 928.2 hPa | - | - | - | - |
| 1777739395 | 23.89° C | 15% | 928.4 hPa | - | - | - | - |
| 1777738795 | 22.78° C | 16% | 928.3 hPa | - | - | - | - |
| 1777738194 | 23.33° C | 16% | 928.4 hPa | - | - | - | - |
| 1777737894 | 23.33° C | 16% | 928.3 hPa | - | - | - | - |
| 1777737595 | 23.33° C | 16% | 928.1 hPa | - | - | - | - |
| 1777736994 | 22.22° C | 16% | 928.2 hPa | - | - | - | - |
| 1777736694 | 21.67° C | 17% | 928.2 hPa | - | - | - | - |
| 1777736394 | 21.11° C | 17% | 928.2 hPa | - | - | - | - |
| 1777735795 | 19.44° C | 19% | 928.3 hPa | - | - | - | - |
| 1777735494 | 19.44° C | 18% | 928.2 hPa | - | - | - | - |
| 1777735194 | 18.89° C | 19% | 928.1 hPa | - | - | - | - |
| 1777734894 | 18.89° C | 20% | 928.1 hPa | - | - | - | - |
| 1777734595 | 18.89° C | 21% | 928.1 hPa | - | - | - | - |
| 1777734295 | 17.78° C | 23% | 928.2 hPa | - | - | - | - |
| 1777734010 | 17.78° C | 24% | 928.1 hPa | - | - | - | - |
| 1777733699 | 18.33° C | 24% | 928.1 hPa | - | - | - | - |
| 1777733395 | 16.67° C | 25% | 928 hPa | - | - | - | - |
| 1777733095 | 16.11° C | 24% | 928 hPa | - | - | - | - |
| 1777732794 | 15° C | 26% | 928 hPa | - | - | - | - |
| 1777732494 | 15° C | 25% | 928 hPa | - | - | - | - |
| 1777732194 | 13.33° C | 26% | 927.8 hPa | - | - | - | - |
| 1777731895 | 13.33° C | 28% | 928.1 hPa | - | - | - | - |
* Rain since midnight (hover to see other rain measurements)
** Current wind speed in m/s (hover to see current wind gust speed)